Location: Newark
(21.1200°N, 73.4000°E)
Time: 03:38:12
(UTC+00:00)

Courier 1B Rocket - Pass Details

Date: 27 January 2020
Orbit: 920 x 1202 km, 28.2° (Epoch: 16 February)

Event Time Altitude Azimuth Distance (km) Brightness Sun altitude
Rises 09:03:55 0° 288° (WNW) 3,860 8.3 42.7°
Reaches altitude 10° 09:06:49 10° 293° (WNW) 2,859 7.7 42.4°
Maximum altitude 09:13:34 53° 9° (N) 1,209 5.7 41.4°
Drops below altitude 10° 09:19:52 10° 86° (E) 2,674 7.1 40.5°
Sets 09:22:30 0° 91° (E) 3,592 7.7 40.1°
